Location: Auttagershofen
(48.1940°N, 10.0237°E)
Time: 04:26:38
(UTC+00:00)

IRS-1D - Visible Passes

Search period start: 21 April 2026 00:00
Search period end: 01 May 2026 00:00
Orbit: 736 x 811 km, 98.8° (Epoch: 20 April)

Date Brightness Start Highest point End Pass type
(mag) Time Alt. Az. Time Alt. Az. Time Alt. Az.
21 Apr 6.5 03:19:15 10° ENE 03:21:56 14° E 03:24:36 10° ESE visible
24 Apr 6.5 03:15:33 10° ENE 03:17:53 13° E 03:20:13 10° ESE visible
27 Apr 6.6 03:11:56 10° ENE 03:13:50 12° E 03:15:44 10° ESE visible
30 Apr 6.8 03:08:30 10° ENE 03:09:47 11° E 03:11:04 10° E visible
